QPF
0.00 0.00 0.00 0.00 0.00 0.00 0.00 0.00 0.00 0.00 0.00 0.00 0.00 0.00 0.00 0.00 0.00 0.01 0.06 0.05 0.01 0.00 0.00 0.00 0.00 0.00 0.03 0.08 0.02 0.00 0.00 0.00 0.02 0.08 0.00 0.00 0.00 0.00 0.00 0.00 0.00 0.00 0.00 0.00 0.00 0.00 0.00
0.00 0.00 0.00 0.00 0.00 0.00 0.00 0.00 0.00 0.00 0.00 0.00 0.00 0.00 0.00 0.00 0.00 0.00 0.03 0.05 0.02 0.00 0.00 0.00 0.00 0.00 0.00 0.02 0.00 0.00 0.00 0.00 0.00 0.08 0.01 0.00 0.00 0.00 0.00 0.00 0.00 0.00 0.00 0.00 0.00 0.00 0.00
0.00 0.00 0.00 0.00 0.00 0.00 0.00 0.00 0.00 0.00 0.00 0.00 0.00 0.00 0.00 0.00 0.00 0.00 0.02 0.05 0.04 0.00 0.00 0.00 0.00 0.00 0.00 0.00 0.00 0.00 0.00 0.00 0.00 0.05 0.03 0.00 0.00 0.00 0.00 0.00 0.00 0.00 0.00 0.00 0.00 0.00 0.00
0.00 0.00 0.00 0.00 0.00 0.00 0.00 0.00 0.00 0.00 0.00 0.00 0.00 0.00 0.00 0.00 0.00 0.01 0.02 0.04 0.05 0.01 0.00 0.00 0.00 0.00 0.00 0.00 0.00 0.00 0.00 0.00 0.00 0.00 0.01 0.02 0.02 0.00 0.00 0.00 0.00 0.00 0.00 0.00 0.00 0.00 0.00
0.00 0.00 0.00 0.00 0.00 0.01 0.00 0.01 0.01 0.00 0.00 0.00 0.00 0.00 0.00 0.00 0.00 0.02 0.06 0.09 0.20 0.07 0.01 0.01 0.00 0.00 0.00 0.00 0.00 0.00 0.00 0.00 0.00 0.00 0.00 0.00 0.01 0.00 0.00 0.00 0.00 0.00 0.00 0.00 0.00 0.00 0.00
0.00 0.00 0.00 0.01 0.01 0.03 0.01 0.02 0.00 0.00 0.00 0.00 0.00 0.00 0.00 0.00 0.00 0.01 0.07 0.14 0.42 0.23 0.06 0.02 0.00 0.00 0.00 0.00 0.00 0.00 0.00 0.00 0.00 0.00 0.00 0.00 0.00 0.00 0.00 0.00 0.00 0.00 0.00 0.00 0.00 0.00 0.00
0.00 0.00 0.01 0.02 0.02 0.03 0.04 0.03 0.01 0.01 0.01 0.01 0.01 0.00 0.00 0.01 0.01 0.01 0.09 0.25 0.62 0.44 0.09 0.00 0.00 0.00 0.00 0.00 0.00 0.00 0.00 0.00 0.00 0.00 0.00 0.00 0.00 0.00 0.00 0.00 0.00 0.00 0.00 0.00 0.00 0.00 0.00
0.00 0.01 0.01 0.02 0.02 0.03 0.05 0.02 0.01 0.02 0.02 0.03 0.01 0.01 0.05 0.08 0.05 0.02 0.11 0.36 0.28 0.08 0.03 0.00 0.00 0.00 0.00 0.00 0.00 0.00 0.00 0.00 0.00 0.00 0.00 0.00 0.00 0.00 0.00 0.00 0.00 0.00 0.00 0.00 0.00 0.00 0.00
0.00 0.01 0.01 0.01 0.02 0.04 0.03 0.02 0.02 0.03 0.03 0.06 0.05 0.03 0.09 0.06 0.01 0.01 0.05 0.22 0.23 0.11 0.04 0.01 0.00 0.00 0.00 0.00 0.00 0.00 0.00 0.00 0.00 0.00 0.00 0.00 0.00 0.00 0.00 0.00 0.00 0.00 0.00 0.00 0.00 0.00 0.00
0.00 0.01 0.01 0.01 0.03 0.03 0.02 0.03 0.03 0.03 0.02 0.05 0.05 0.04 0.05 0.01 0.02 0.02 0.01 0.14 0.35 0.24 0.22 0.04 0.00 0.00 0.00 0.00 0.00 0.00 0.00 0.00 0.00 0.00 0.00 0.00 0.00 0.00 0.00 0.00 0.00 0.00 0.00 0.00 0.00 0.00 0.00
0.00 0.00 0.01 0.02 0.02 0.03 0.04 0.04 0.03 0.03 0.02 0.03 0.03 0.02 0.01 0.01 0.04 0.01 0.05 0.13 0.31 0.36 0.50 0.08 0.00 0.00 0.00 0.00 0.00 0.00 0.00 0.00 0.00 0.00 0.00 0.00 0.00 0.00 0.00 0.00 0.00 0.00 0.00 0.00 0.00 0.00 0.00
0.00 0.01 0.02 0.02 0.02 0.04 0.04 0.02 0.03 0.02 0.02 0.01 0.00 0.00 0.00 0.00 0.01 0.00 0.03 0.25 0.25 0.46 0.31 0.03 0.00 0.01 0.00 0.00 0.00 0.00 0.00 0.00 0.00 0.00 0.00 0.00 0.00 0.00 0.00 0.00 0.00 0.00 0.00 0.00 0.00 0.00 0.01
0.01 0.02 0.02 0.02 0.02 0.03 0.04 0.03 0.01 0.01 0.00 0.00 0.01 0.08 0.14 0.04 0.00 0.00 0.10 0.31 0.33 0.26 0.08 0.00 0.01 0.01 0.00 0.00 0.00 0.00 0.00 0.00 0.00 0.00 0.00 0.00 0.00 0.00 0.00 0.00 0.00 0.00 0.00 0.00 0.00 0.01 0.00
0.01 0.02 0.02 0.01 0.02 0.02 0.04 0.03 0.00 0.00 0.00 0.00 0.07 0.10 0.08 0.04 0.00 0.03 0.37 0.25 0.23 0.06 0.01 0.00 0.00 0.00 0.00 0.00 0.01 0.00 0.00 0.01 0.00 0.00 0.00 0.00 0.00 0.00 0.00 0.00 0.00 0.00 0.00 0.00 0.00 0.00 0.00
0.01 0.02 0.01 0.01 0.01 0.03 0.03 0.02 0.00 0.00 0.00 0.02 0.08 0.03 0.05 0.01 0.00 0.08 0.31 0.25 0.12 0.01 0.00 0.00 0.00 0.01 0.01 0.00 0.00 0.00 0.00 0.00 0.00 0.00 0.00 0.00 0.00 0.00 0.00 0.00 0.00 0.00 0.00 0.00 0.01 0.00 0.01
0.01 0.01 0.02 0.01 0.01 0.02 0.03 0.01 0.00 0.00 0.01 0.02 0.03 0.04 0.10 0.04 0.03 0.13 0.12 0.14 0.07 0.00 0.00 0.00 0.00 0.00 0.00 0.00 0.00 0.00 0.00 0.00 0.00 0.00 0.00 0.00 0.00 0.00 0.00 0.00 0.00 0.00 0.00 0.01 0.03 0.01 0.00
0.01 0.02 0.02 0.01 0.02 0.01 0.03 0.00 0.01 0.00 0.00 0.02 0.06 0.06 0.12 0.10 0.05 0.07 0.05 0.09 0.02 0.00 0.00 0.00 0.00 0.00 0.00 0.00 0.00 0.00 0.00 0.00 0.00 0.00 0.00 0.00 0.00 0.00 0.00 0.00 0.00 0.00 0.01 0.01 0.02 0.02 0.02
0.01 0.02 0.02 0.01 0.01 0.01 0.02 0.00 0.01 0.00 0.02 0.04 0.08 0.13 0.07 0.04 0.05 0.04 0.08 0.06 0.02 0.00 0.00 0.00 0.00 0.00 0.00 0.00 0.00 0.00 0.00 0.00 0.00 0.00 0.00 0.00 0.00 0.00 0.00 0.00 0.00 0.00 0.00 0.01 0.08 0.03 0.08
0.01 0.01 0.01 0.01 0.01 0.01 0.01 0.00 0.00 0.00 0.02 0.05 0.07 0.07 0.05 0.07 0.07 0.04 0.10 0.07 0.01 0.01 0.01 0.00 0.00 0.00 0.00 0.00 0.00 0.00 0.00 0.00 0.00 0.00 0.00 0.00 0.01 0.00 0.00 0.00 0.01 0.00 0.00 0.00 0.05 0.12 0.08
0.00 0.01 0.01 0.01 0.01 0.01 0.00 0.00 0.00 0.00 0.00 0.07 0.22 0.14 0.07 0.05 0.05 0.01 0.07 0.08 0.03 0.03 0.00 0.00 0.00 0.00 0.00 0.00 0.00 0.00 0.00 0.00 0.00 0.00 0.00 0.00 0.00 0.00 0.00 0.00 0.01 0.02 0.00 0.02 0.10 0.12 0.02
0.00 0.00 0.00 0.01 0.00 0.01 0.00 0.00 0.00 0.00 0.01 0.05 0.13 0.04 0.01 0.01 0.02 0.02 0.03 0.03 0.02 0.00 0.00 0.00 0.00 0.00 0.00 0.00 0.00 0.00 0.00 0.00 0.00 0.00 0.00 0.00 0.01 0.00 0.00 0.00 0.00 0.00 0.00 0.01 0.11 0.05 0.05
0.00 0.00 0.00 0.01 0.00 0.00 0.00 0.00 0.00 0.00 0.02 0.02 0.02 0.01 0.01 0.00 0.00 0.00 0.00 0.01 0.00 0.00 0.00 0.00 0.00 0.00 0.00 0.00 0.00 0.00 0.00 0.00 0.00 0.00 0.00 0.01 0.01 0.00 0.00 0.00 0.00 0.00 0.00 0.01 0.01 0.01 0.01
0.00 0.00 0.00 0.01 0.00 0.00 0.00 0.00 0.00 0.00 0.00 0.01 0.01 0.00 0.01 0.01 0.00 0.00 0.00 0.00 0.00 0.00 0.00 0.00 0.00 0.00 0.00 0.00 0.00 0.00 0.00 0.00 0.00 0.00 0.00 0.01 0.00 0.01 0.00 0.00 0.00 0.01 0.01 0.01 0.00 0.00 0.00
0.00 0.00 0.00 0.00 0.01 0.00 0.00 0.00 0.00 0.00 0.00 0.00 0.01 0.01 0.00 0.01 0.00 0.00 0.00 0.00 0.00 0.00 0.00 0.00 0.00 0.00 0.01 0.00 0.00 0.00 0.00 0.00 0.00 0.00 0.00 0.01 0.00 0.01 0.01 0.01 0.02 0.01 0.00 0.00 0.00 0.00 0.00
0.00 0.00 0.00 0.00 0.00 0.00 0.00 0.00 0.00 0.00 0.00 0.00 0.00 0.00 0.00 0.01 0.00 0.00 0.00 0.00 0.00 0.00 0.00 0.00 0.00 0.00 0.00 0.00 0.00 0.00 0.00 0.00 0.00 0.00 0.00 0.00 0.01 0.02 0.02 0.02 0.01 0.00 0.00 0.00 0.00 0.00 0.00
0.00 0.00 0.00 0.00 0.00 0.00 0.00 0.00 0.00 0.00 0.00 0.00 0.00 0.00 0.00 0.00 0.00 0.00 0.00 0.00 0.00 0.00 0.00 0.00 0.00 0.00 0.00 0.01 0.01 0.01 0.01 0.00 0.00 0.00 0.00 0.00 0.00 0.02 0.02 0.03 0.01 0.00 0.00 0.00 0.01 0.00 0.00
0.00 0.00 0.00 0.00 0.00 0.00 0.00 0.00 0.00 0.00 0.00 0.00 0.00 0.00 0.00 0.00 0.00 0.00 0.00 0.00 0.00 0.00 0.01 0.00 0.01 0.00 0.01 0.02 0.01 0.01 0.01 0.00 0.00 0.00 0.00 0.00 0.00 0.01 0.02 0.04 0.00 0.00 0.00 0.00 0.00 0.00 0.00
0.00 0.00 0.00 0.00 0.00 0.00 0.00 0.00 0.00 0.00 0.00 0.00 0.00 0.00 0.00 0.00 0.00 0.00 0.00 0.00 0.00 0.00 0.01 0.00 0.00 0.00 0.01 0.01 0.02 0.01 0.01 0.00 0.00 0.00 0.00 0.00 0.00 0.00 0.00 0.00 0.00 0.00 0.00 0.00 0.00 0.00 0.00
0.00 0.00 0.00 0.00 0.00 0.00 0.00 0.00 0.00 0.00 0.00 0.00 0.00 0.00 0.00 0.01 0.01 0.00 0.00 0.00 0.00 0.00 0.00 0.00 0.01 0.00 0.00 0.00 0.01 0.02 0.01 0.00 0.00 0.00 0.00 0.00 0.00 0.00 0.00 0.00 0.00 0.00 0.00 0.00 0.00 0.00 0.00
MSLP
1020.51 1020.06 1019.67 1019.15 1018.78 1018.31 1017.95 1017.48 1017.07 1016.67 1016.27 1015.86 1015.43 1015.06 1014.83 1014.28 1013.80 1013.32 1012.89 1012.36 1012.03 1012.38 1012.46 1012.48 1012.34 1012.27 1012.24 1011.33 1010.48 1010.24 1010.75 1010.53 1010.34 1010.88 1010.60 1010.40 1010.22 1009.82 1009.35 1008.78 1008.90 1008.76 1008.66 1008.01 1007.91 1007.98 1007.92
1020.34 1019.94 1019.49 1019.05 1018.55 1018.04 1017.66 1017.23 1016.80 1016.41 1015.95 1015.46 1015.05 1014.66 1014.37 1014.07 1013.58 1013.13 1012.75 1012.27 1011.74 1011.97 1012.22 1012.28 1012.34 1012.39 1011.86 1010.77 1010.24 1010.36 1010.17 1010.09 1009.69 1010.37 1010.60 1010.68 1010.49 1009.98 1009.71 1009.17 1009.25 1008.87 1009.05 1008.48 1008.08 1008.04 1008.20
1020.41 1019.89 1019.35 1018.85 1018.32 1017.81 1017.31 1016.92 1016.44 1016.03 1015.62 1015.16 1014.67 1014.18 1013.87 1013.63 1013.32 1012.89 1012.47 1012.11 1011.64 1011.45 1011.87 1012.05 1012.26 1012.14 1011.25 1010.08 1009.76 1009.98 1010.12 1009.93 1009.69 1009.92 1010.58 1011.02 1011.42 1010.98 1010.31 1010.11 1009.74 1009.81 1009.51 1008.61 1007.96 1007.95 1007.98
1020.25 1019.66 1019.15 1018.65 1018.17 1017.58 1017.07 1016.58 1016.20 1015.77 1015.24 1014.75 1014.36 1013.85 1013.47 1013.10 1012.83 1012.54 1012.18 1011.91 1011.56 1011.13 1011.59 1012.02 1012.12 1011.72 1010.42 1010.27 1010.03 1010.33 1010.15 1010.16 1009.93 1009.96 1010.50 1011.22 1011.61 1011.42 1010.90 1010.74 1010.26 1009.88 1009.25 1008.03 1006.64 1007.29 1007.32
1019.90 1019.49 1018.92 1018.41 1017.80 1017.29 1016.90 1016.24 1015.85 1015.46 1014.94 1014.41 1013.96 1013.63 1013.20 1012.74 1012.43 1012.16 1011.86 1011.66 1011.12 1010.55 1011.26 1011.91 1011.90 1011.33 1010.13 1010.79 1010.45 1010.17 1010.01 1009.98 1010.00 1010.32 1010.66 1011.29 1011.81 1011.46 1011.48 1010.97 1009.96 1009.39 1008.11 1007.31 1006.91 1006.88 1007.33
1019.80 1019.25 1018.65 1018.02 1017.43 1016.73 1016.32 1015.91 1015.54 1014.97 1014.59 1014.11 1013.59 1013.17 1013.03 1012.57 1012.11 1011.83 1011.57 1011.39 1011.01 1010.62 1011.28 1011.74 1011.56 1011.49 1010.17 1009.57 1009.98 1010.09 1010.14 1010.11 1010.10 1010.45 1010.88 1011.49 1011.62 1011.52 1011.14 1010.34 1008.73 1008.13 1008.23 1007.64 1007.10 1006.92 1007.39
1019.67 1018.90 1018.22 1017.74 1017.04 1016.46 1015.99 1015.55 1015.08 1014.59 1014.32 1013.83 1013.51 1013.04 1012.67 1012.16 1011.79 1011.40 1011.24 1011.02 1010.76 1010.72 1010.33 1009.46 1009.34 1008.96 1009.08 1009.70 1010.08 1010.19 1010.20 1010.21 1010.45 1010.52 1010.77 1011.97 1012.13 1010.96 1010.06 1009.83 1009.23 1008.95 1008.83 1008.00 1007.35 1007.27 1007.51
1019.54 1018.81 1018.17 1017.44 1016.81 1016.25 1015.79 1015.23 1014.68 1014.24 1013.88 1013.43 1013.04 1012.66 1012.38 1011.91 1011.53 1011.14 1011.02 1010.88 1010.11 1010.47 1009.93 1009.17 1009.15 1009.12 1009.28 1009.21 1009.63 1010.02 1010.06 1010.11 1010.44 1010.27 1010.90 1012.33 1011.49 1010.79 1010.35 1010.22 1009.96 1009.70 1009.29 1008.70 1008.25 1008.00 1008.04
1019.59 1018.80 1018.05 1017.28 1016.61 1016.10 1015.45 1015.01 1014.40 1013.99 1013.50 1012.99 1012.61 1012.25 1012.00 1011.78 1011.12 1010.54 1010.37 1010.24 1010.62 1010.31 1009.27 1009.26 1009.19 1008.92 1009.23 1009.47 1008.89 1009.59 1009.99 1009.93 1010.12 1010.18 1010.72 1010.80 1010.49 1010.90 1010.71 1010.71 1010.47 1009.90 1009.59 1009.29 1009.08 1008.87 1008.60
1019.37 1018.51 1017.74 1017.01 1016.51 1015.91 1015.30 1014.74 1014.11 1013.68 1013.10 1012.62 1012.29 1012.03 1011.75 1011.42 1010.79 1010.66 1009.95 1009.79 1010.91 1010.50 1010.15 1009.28 1009.19 1008.65 1009.05 1009.02 1008.93 1009.55 1009.85 1010.11 1010.29 1010.10 1010.78 1010.80 1010.39 1011.10 1010.96 1010.79 1010.61 1010.09 1009.84 1009.92 1010.23 1010.28 1008.80
1019.10 1018.36 1017.80 1017.09 1016.39 1015.70 1015.04 1014.40 1013.77 1013.26 1012.76 1012.17 1011.64 1011.44 1011.36 1011.33 1011.02 1010.39 1009.65 1009.66 1010.57 1010.62 1009.39 1008.88 1008.79 1008.35 1008.55 1008.65 1008.85 1009.80 1009.96 1010.48 1010.08 1010.12 1010.73 1010.54 1010.89 1010.97 1011.03 1010.69 1010.87 1010.74 1011.20 1011.19 1011.19 1010.92 1010.06
1019.01 1018.20 1017.51 1016.80 1016.14 1015.36 1014.73 1014.11 1013.35 1012.73 1012.06 1011.49 1011.13 1010.92 1010.69 1010.50 1010.41 1010.11 1010.24 1010.48 1010.46 1010.97 1008.56 1008.71 1008.61 1008.48 1008.71 1008.66 1009.21 1009.88 1010.42 1010.66 1010.29 1010.61 1010.93 1010.60 1011.13 1011.17 1010.76 1010.97 1011.21 1011.63 1011.68 1012.04 1012.00 1011.96 1009.94
1018.77 1017.98 1017.25 1016.54 1015.73 1015.09 1014.53 1013.89 1013.11 1012.30 1011.57 1010.94 1010.40 1009.71 1009.53 1009.46 1009.04 1009.84 1010.25 1010.35 1010.43 1009.07 1008.00 1008.05 1007.89 1008.26 1008.73 1009.00 1009.41 1009.91 1010.17 1010.42 1010.27 1010.89 1010.74 1010.88 1010.67 1011.12 1011.19 1011.24 1011.61 1011.94 1012.31 1011.72 1011.58 1011.04 1007.90
1018.59 1017.88 1017.18 1016.37 1015.58 1014.96 1014.32 1013.63 1012.68 1011.80 1011.16 1010.35 1009.40 1008.09 1007.05 1006.49 1008.09 1009.95 1010.72 1010.13 1008.22 1006.85 1006.53 1006.82 1007.56 1008.26 1008.64 1009.07 1009.20 1009.49 1009.85 1010.02 1009.89 1009.80 1009.84 1010.19 1009.87 1010.36 1011.10 1011.02 1010.81 1011.62 1011.92 1011.03 1009.66 1008.52 1006.54
1018.45 1017.65 1017.03 1016.24 1015.46 1014.83 1014.14 1013.36 1012.32 1011.60 1010.80 1009.81 1008.64 1007.22 1006.62 1006.68 1007.82 1009.43 1010.44 1009.20 1007.30 1005.52 1005.46 1005.94 1007.38 1007.88 1008.25 1008.71 1008.80 1009.01 1009.01 1009.11 1009.06 1009.39 1009.64 1009.41 1009.66 1009.95 1010.42 1010.70 1011.07 1011.08 1011.50 1011.35 1010.97 1009.89 1008.39
1018.23 1017.37 1016.80 1016.07 1015.28 1014.72 1014.00 1013.11 1012.16 1011.27 1010.42 1009.45 1008.64 1007.59 1007.41 1007.55 1008.06 1009.31 1009.38 1008.07 1006.85 1004.63 1004.71 1005.24 1005.88 1006.64 1007.14 1007.79 1008.14 1008.19 1008.42 1007.90 1008.45 1008.68 1009.02 1009.30 1009.64 1009.91 1010.18 1010.85 1010.72 1010.77 1011.17 1011.84 1011.91 1009.87 1007.04
1018.19 1017.35 1016.64 1015.95 1015.17 1014.44 1013.86 1012.93 1012.01 1011.02 1010.06 1009.25 1008.76 1008.39 1008.56 1008.34 1008.80 1009.23 1008.67 1007.66 1006.28 1004.89 1004.56 1004.83 1004.98 1005.35 1005.98 1006.69 1006.92 1007.35 1007.48 1007.40 1007.52 1007.85 1008.76 1009.30 1009.70 1010.21 1010.65 1010.13 1009.43 1010.59 1010.84 1011.50 1011.03 1009.93 1007.54
1017.97 1017.30 1016.40 1015.83 1015.08 1014.43 1013.62 1012.80 1011.81 1010.71 1009.61 1008.86 1008.85 1008.91 1008.90 1008.65 1009.08 1008.76 1008.18 1007.33 1006.36 1005.54 1005.32 1004.91 1004.70 1004.65 1004.95 1005.74 1006.08 1006.32 1006.38 1006.94 1007.46 1007.89 1008.51 1009.23 1009.70 1009.69 1009.07 1008.81 1008.95 1009.18 1009.68 1010.37 1010.35 1008.68 1007.72
1017.94 1017.24 1016.45 1015.82 1015.07 1014.32 1013.50 1012.72 1011.65 1010.46 1009.24 1008.85 1008.97 1009.19 1009.15 1009.31 1008.75 1008.17 1008.06 1007.16 1006.18 1006.35 1005.72 1005.21 1005.03 1004.87 1004.93 1005.29 1005.91 1006.11 1006.56 1007.27 1007.78 1008.01 1008.21 1009.15 1009.81 1009.59 1008.37 1008.18 1008.16 1008.51 1008.67 1008.90 1009.02 1008.94 1006.65
1017.83 1017.05 1016.28 1015.68 1015.12 1014.39 1013.54 1012.81 1011.72 1010.35 1009.13 1008.66 1009.60 1009.43 1009.59 1009.29 1008.02 1007.11 1007.33 1006.93 1006.46 1006.32 1005.65 1005.31 1005.18 1005.09 1005.15 1005.41 1005.84 1006.15 1006.88 1007.64 1007.93 1008.23 1008.74 1009.01 1009.32 1009.45 1008.35 1007.51 1007.95 1008.56 1008.35 1008.42 1008.74 1007.72 1005.71
1017.97 1017.07 1016.48 1015.70 1015.16 1014.53 1013.72 1012.88 1011.87 1010.47 1009.25 1008.99 1009.40 1009.11 1008.71 1008.39 1007.87 1007.23 1006.88 1006.77 1006.47 1006.06 1005.74 1005.40 1005.34 1005.15 1005.13 1005.40 1005.99 1006.33 1006.82 1007.48 1008.09 1008.48 1009.05 1009.58 1009.57 1009.47 1008.78 1008.09 1007.71 1007.30 1007.01 1006.96 1007.26 1006.73 1006.03
1018.04 1017.22 1016.40 1015.82 1015.33 1014.80 1014.10 1013.14 1012.20 1011.00 1009.55 1009.41 1009.82 1009.66 1008.61 1007.96 1007.03 1006.44 1006.42 1006.14 1006.10 1006.16 1005.83 1005.61 1005.29 1005.53 1005.71 1005.65 1006.00 1006.30 1006.69 1007.16 1007.41 1008.46 1009.06 1009.58 1009.58 1009.58 1008.47 1007.42 1006.74 1006.08 1005.44 1005.52 1005.38 1005.19 1004.70
1017.93 1017.50 1016.70 1015.90 1015.49 1014.76 1014.35 1013.50 1012.62 1011.81 1010.61 1010.51 1010.42 1010.16 1009.78 1008.80 1007.12 1006.38 1006.13 1006.14 1006.12 1006.19 1006.49 1006.19 1006.04 1005.98 1006.17 1006.44 1006.68 1006.91 1007.05 1007.33 1007.52 1007.86 1008.72 1009.46 1009.98 1009.84 1007.53 1006.29 1005.44 1004.38 1004.16 1004.34 1004.34 1004.23 1003.73
1017.62 1017.30 1016.91 1016.15 1015.75 1015.16 1014.46 1013.98 1013.03 1012.43 1012.02 1011.70 1011.48 1011.07 1009.87 1008.95 1007.32 1006.51 1006.31 1006.29 1006.33 1006.33 1006.38 1006.76 1006.70 1006.54 1007.15 1007.09 1007.24 1007.28 1007.38 1007.47 1007.82 1008.18 1008.78 1009.11 1009.88 1009.79 1008.04 1006.36 1004.25 1002.75 1002.84 1003.23 1003.41 1002.87 1002.37
1017.59 1017.29 1016.94 1016.03 1015.76 1015.67 1014.80 1014.24 1013.75 1012.90 1012.16 1011.94 1012.01 1011.60 1010.51 1008.79 1007.27 1006.73 1006.44 1006.29 1006.23 1006.53 1006.83 1007.06 1007.29 1007.36 1007.51 1007.42 1007.26 1007.10 1007.33 1007.52 1006.88 1007.44 1008.15 1008.61 1008.97 1009.07 1008.11 1006.24 1003.57 1002.15 1001.91 1002.56 1002.83 1001.96 1001.84
1017.59 1017.30 1016.92 1016.08 1015.66 1015.55 1015.57 1014.73 1014.09 1013.53 1012.84 1011.89 1011.82 1011.64 1011.14 1009.96 1007.61 1006.50 1006.29 1006.33 1006.05 1006.24 1006.87 1007.18 1007.81 1007.87 1007.89 1007.90 1007.90 1007.58 1006.89 1006.12 1006.34 1007.07 1007.51 1007.77 1008.26 1008.60 1007.53 1006.22 1003.53 1001.31 1001.56 1002.14 1002.41 1001.42 1001.39
1017.34 1017.26 1016.95 1016.20 1015.46 1015.18 1015.06 1014.96 1014.32 1013.76 1013.04 1012.45 1011.90 1011.94 1011.48 1010.45 1008.07 1007.22 1006.31 1005.99 1006.10 1006.20 1007.01 1007.64 1008.00 1008.25 1008.34 1008.22 1008.12 1007.87 1007.06 1006.23 1005.58 1005.46 1006.50 1006.92 1007.17 1007.08 1006.70 1005.61 1002.97 1001.06 1001.31 1001.68 1001.59 1001.87 1001.41
1017.24 1016.84 1016.74 1016.27 1015.57 1015.21 1015.00 1014.71 1014.35 1013.90 1013.52 1012.97 1012.01 1012.00 1011.80 1011.15 1009.43 1008.13 1006.93 1006.42 1006.35 1006.26 1006.54 1007.45 1008.07 1008.26 1008.43 1008.49 1008.59 1008.12 1007.35 1005.93 1005.35 1004.34 1004.61 1004.87 1005.31 1005.27 1005.16 1004.23 1002.15 1000.93 1000.87 1001.16 1001.24 1001.26 1001.50
1016.92 1016.54 1016.29 1016.04 1015.44 1014.94 1014.76 1014.63 1014.19 1013.86 1013.53 1013.15 1012.52 1012.01 1012.20 1012.04 1010.36 1009.04 1007.88 1007.19 1006.84 1006.19 1006.31 1007.12 1007.42 1007.64 1008.02 1008.47 1008.63 1008.30 1007.59 1006.17 1004.98 1003.78 1003.71 1003.40 1002.75 1002.54 1002.47 1001.06 1000.36 1000.51 1000.74 1000.87 1001.26 1001.49 1001.62
Thickness
5533 5530 5526 5524 5520 5518 5516 5516 5515 5514 5513 5513 5514 5516 5518 5522 5525 5530 5535 5540 5546 5547 5551 5554 5560 5563 5568 5573 5583 5596 5596 5604 5610 5610 5614 5618 5621 5628 5629 5642 5644 5641 5647 5660 5663 5662 5664
5532 5527 5522 5518 5514 5512 5509 5507 5508 5508 5508 5508 5507 5508 5510 5513 5518 5522 5527 5533 5539 5541 5543 5547 5550 5553 5562 5565 5583 5586 5592 5598 5607 5604 5605 5609 5613 5624 5626 5634 5631 5641 5640 5648 5654 5655 5655
5527 5523 5518 5513 5508 5505 5503 5499 5498 5498 5498 5498 5498 5499 5500 5504 5508 5513 5519 5525 5532 5538 5538 5540 5542 5548 5556 5567 5580 5582 5585 5591 5600 5601 5596 5600 5601 5607 5617 5614 5628 5624 5622 5637 5646 5648 5647
5524 5520 5514 5509 5502 5497 5494 5492 5489 5486 5483 5483 5482 5484 5486 5491 5496 5502 5509 5516 5524 5532 5531 5531 5535 5543 5553 5564 5569 5572 5576 5580 5591 5596 5593 5594 5594 5597 5604 5611 5613 5611 5621 5624 5652 5648 5651
5520 5513 5507 5501 5496 5491 5484 5479 5473 5466 5459 5456 5456 5461 5465 5471 5480 5488 5497 5506 5517 5526 5525 5523 5530 5538 5551 5553 5558 5566 5572 5573 5582 5584 5587 5587 5585 5589 5591 5592 5603 5611 5618 5629 5636 5647 5641
5514 5506 5499 5493 5486 5481 5473 5464 5452 5441 5428 5422 5419 5423 5435 5446 5457 5471 5484 5495 5506 5516 5515 5517 5524 5528 5546 5555 5556 5560 5566 5569 5572 5574 5575 5574 5576 5578 5584 5593 5604 5615 5610 5620 5624 5639 5633
5507 5500 5493 5484 5475 5466 5457 5444 5428 5413 5402 5398 5395 5396 5401 5417 5433 5453 5471 5486 5501 5507 5513 5535 5540 5546 5548 5549 5551 5552 5557 5561 5564 5568 5566 5562 5560 5573 5591 5597 5605 5607 5604 5612 5626 5632 5623
5499 5492 5483 5473 5462 5451 5439 5423 5406 5396 5388 5384 5382 5382 5385 5395 5411 5434 5454 5472 5489 5502 5512 5528 5532 5537 5542 5548 5545 5548 5556 5556 5557 5561 5566 5551 5559 5579 5590 5591 5592 5593 5595 5601 5613 5619 5614
5491 5484 5474 5464 5452 5439 5424 5404 5391 5383 5379 5377 5375 5376 5380 5384 5401 5424 5447 5469 5475 5492 5515 5518 5524 5531 5535 5540 5549 5547 5551 5555 5556 5562 5562 5564 5577 5575 5579 5578 5579 5588 5590 5595 5596 5603 5606
5486 5479 5467 5456 5441 5425 5407 5389 5382 5376 5377 5378 5377 5377 5379 5383 5400 5413 5444 5463 5466 5483 5492 5511 5512 5527 5532 5540 5543 5549 5551 5551 5553 5560 5560 5564 5580 5568 5572 5573 5580 5581 5595 5591 5582 5575 5584
5481 5472 5458 5444 5430 5412 5395 5383 5377 5376 5378 5380 5383 5383 5383 5383 5392 5412 5434 5454 5463 5477 5523 5507 5513 5527 5532 5539 5546 5540 5549 5545 5552 5559 5560 5565 5562 5566 5565 5573 5577 5575 5574 5570 5567 5562 5562
5476 5466 5453 5439 5423 5405 5389 5380 5377 5380 5383 5385 5386 5386 5388 5389 5397 5412 5427 5442 5459 5471 5519 5500 5506 5518 5525 5538 5539 5538 5539 5546 5555 5553 5555 5564 5565 5564 5570 5571 5569 5565 5560 5553 5549 5537 5543
5473 5462 5450 5435 5418 5399 5385 5376 5376 5383 5387 5390 5392 5394 5394 5395 5406 5411 5419 5434 5452 5483 5499 5500 5513 5521 5525 5530 5534 5534 5536 5539 5545 5533 5543 5552 5559 5559 5562 5558 5557 5551 5540 5546 5539 5530 5560
5471 5459 5446 5431 5414 5396 5385 5375 5381 5388 5391 5395 5399 5404 5407 5415 5410 5406 5409 5438 5483 5508 5516 5520 5516 5518 5521 5527 5534 5538 5538 5538 5551 5555 5557 5548 5559 5558 5554 5553 5555 5542 5539 5548 5551 5563 5572
5470 5459 5444 5429 5411 5394 5386 5380 5386 5392 5396 5401 5405 5410 5408 5412 5416 5415 5416 5454 5487 5514 5522 5523 5514 5513 5518 5527 5535 5539 5544 5546 5554 5554 5548 5554 5551 5559 5555 5553 5548 5541 5529 5537 5526 5533 5524
5470 5459 5446 5430 5413 5395 5389 5388 5395 5399 5403 5407 5407 5410 5408 5411 5418 5420 5438 5471 5481 5521 5529 5530 5525 5528 5525 5530 5534 5541 5542 5557 5551 5556 5558 5556 5547 5554 5553 5543 5543 5537 5536 5513 5504 5511 5530
5468 5459 5448 5433 5417 5402 5397 5399 5403 5407 5409 5410 5411 5411 5408 5413 5420 5426 5459 5466 5492 5520 5528 5530 5534 5537 5539 5536 5545 5543 5548 5556 5561 5559 5556 5551 5547 5544 5536 5534 5544 5528 5521 5505 5515 5515 5517
5471 5460 5452 5438 5423 5409 5405 5406 5409 5414 5417 5419 5414 5417 5413 5419 5422 5438 5464 5469 5497 5514 5522 5530 5539 5545 5546 5545 5547 5552 5556 5554 5557 5556 5546 5548 5541 5538 5545 5551 5549 5543 5530 5520 5506 5523 5507
5470 5462 5454 5441 5429 5418 5415 5414 5418 5423 5427 5425 5422 5415 5418 5423 5445 5461 5462 5482 5507 5506 5517 5527 5531 5541 5546 5545 5542 5550 5551 5551 5550 5550 5549 5544 5533 5533 5547 5549 5549 5540 5539 5533 5521 5507 5517
5471 5465 5457 5447 5434 5424 5422 5423 5427 5432 5436 5435 5418 5426 5426 5435 5461 5485 5478 5488 5504 5510 5520 5527 5530 5536 5540 5542 5545 5546 5543 5542 5545 5546 5540 5544 5539 5533 5549 5552 5546 5525 5529 5527 5510 5513 5528
5468 5466 5456 5450 5440 5429 5428 5431 5433 5439 5443 5442 5433 5444 5455 5458 5470 5482 5495 5499 5503 5510 5520 5528 5529 5534 5539 5538 5539 5541 5545 5541 5539 5540 5536 5534 5522 5531 5537 5543 5540 5536 5535 5534 5513 5518 5510
5466 5464 5460 5452 5443 5435 5433 5436 5438 5441 5446 5445 5444 5452 5463 5479 5495 5501 5501 5507 5510 5512 5520 5523 5530 5532 5534 5538 5541 5540 5543 5542 5542 5537 5533 5532 5527 5521 5525 5542 5544 5543 5549 5543 5537 5529 5521
5469 5460 5459 5455 5447 5443 5437 5440 5443 5445 5447 5446 5450 5457 5461 5471 5499 5506 5508 5510 5513 5517 5516 5522 5525 5528 5529 5532 5537 5538 5541 5542 5543 5542 5535 5528 5515 5514 5545 5556 5555 5554 5553 5545 5539 5536 5531
5472 5465 5458 5457 5448 5445 5444 5443 5449 5451 5451 5452 5455 5459 5476 5480 5503 5508 5510 5511 5512 5517 5518 5517 5520 5525 5523 5529 5531 5532 5534 5537 5535 5534 5533 5529 5510 5512 5532 5543 5561 5576 5569 5559 5550 5551 5551
5470 5465 5458 5460 5453 5441 5445 5446 5449 5457 5462 5462 5461 5465 5473 5502 5510 5510 5511 5512 5517 5517 5515 5515 5515 5519 5521 5525 5530 5533 5530 5528 5541 5538 5533 5535 5530 5524 5533 5544 5567 5576 5577 5563 5552 5559 5555
5465 5463 5457 5460 5456 5448 5438 5445 5448 5451 5457 5468 5466 5468 5470 5481 5510 5515 5514 5513 5517 5518 5516 5516 5513 5515 5518 5520 5522 5524 5537 5553 5545 5535 5536 5538 5534 5524 5535 5537 5553 5583 5577 5568 5558 5568 5563
5463 5458 5453 5455 5458 5453 5446 5441 5444 5447 5453 5458 5464 5463 5467 5477 5505 5508 5512 5515 5517 5519 5509 5507 5509 5508 5511 5519 5521 5524 5530 5545 5549 5553 5539 5532 5528 5529 5529 5533 5561 5587 5578 5573 5576 5571 5568
5458 5459 5451 5450 5452 5449 5444 5441 5440 5441 5444 5450 5459 5459 5462 5465 5479 5497 5508 5511 5512 5516 5514 5512 5510 5509 5511 5511 5512 5517 5526 5545 5547 5561 5552 5549 5543 5542 5538 5536 5553 5583 5582 5575 5578 5578 5572
5454 5456 5450 5446 5446 5447 5440 5435 5434 5433 5434 5438 5446 5453 5453 5454 5474 5485 5496 5503 5509 5517 5518 5512 5515 5517 5516 5509 5509 5512 5520 5539 5549 5553 5559 5557 5571 5574 5570 5580 5590 5587 5581 5584 5579 5576 5575